Terminal Aerodrome Forecast
Issued by NWS

Home | Current Version | Previous Version | Text Only | Print | Product List | Glossary On
Versions: 1 2 3 4 5 6 7 8 9 10 11 12 13 14 15 16 17 18 19 20 21 22 23 24 25 26 27 28 29 30 31 32 33 34 35 36 37 38 39 40 41 42 43 44 45 46 47 48 49 50
000
FTUS44 KHGX 290304 CCA
TAFIAH
TAF COR
KIAH 290304Z 2903/3006 17005KT P6SM SKC
     FM290900 19003KT 5SM BR SCT015 SCT100 SCT250
      TEMPO 2912/2914 1SM BR
     FM291600 23007KT P6SM FEW020 BKN100
     FM300000 30004KT P6SM SCT015 BKN100=

USA.gov is the U.S. government's official web portal to all federal, state and local government web resources and services.